Time,TemperatureF,DewpointF,PressureIn,WindDirection,WindDirectionDegrees,WindSpeedMPH,WindSpeedGustMPH,Humidity,HourlyPrecipIn,Conditions,Clouds,dailyrainin,SolarRadiationWatts/m^2,SoftwareType,DateUTC
2013-05-07 00:00:00,63.9,16.8,29.90,ENE,66,0.0,0.0,16,0.00,,,-99.99,0,WeatherHawk,2013-05-07 07:00:00,
2013-05-07 00:05:00,64.4,18.7,29.90,SE,126,5.0,0.0,17,0.00,,,0.00,0,WeatherHawk,2013-05-07 07:05:00,
2013-05-07 00:10:00,64.5,17.3,29.90,SE,138,4.0,0.0,16,0.00,,,0.00,0,WeatherHawk,2013-05-07 07:10:00,
2013-05-07 00:15:00,63.6,15.1,29.90,SE,138,2.0,0.0,15,0.00,,,0.00,0,WeatherHawk,2013-05-07 07:15:00,
2013-05-07 00:20:00,64.2,17.1,29.91,SE,135,2.0,0.0,16,0.00,,,0.00,0,WeatherHawk,2013-05-07 07:20:00,
2013-05-07 00:26:00,63.3,19.1,29.91,ESE,117,4.0,0.0,18,0.00,,,0.00,0,WeatherHawk,2013-05-07 07:26:00,
2013-05-07 00:31:00,62.4,18.3,29.91,ESE,117,5.0,0.0,18,0.00,,,0.00,0,WeatherHawk,2013-05-07 07:31:00,
2013-05-07 00:36:00,61.0,18.4,29.91,WSW,237,0.0,0.0,19,0.00,,,0.00,0,WeatherHawk,2013-05-07 07:36:00,
2013-05-07 00:41:00,61.1,19.8,29.91,SSE,158,2.0,0.0,20,0.00,,,0.00,0,WeatherHawk,2013-05-07 07:41:00,
2013-05-07 00:46:00,60.3,17.8,29.91,South,173,0.0,0.0,19,0.00,,,0.00,0,WeatherHawk,2013-05-07 07:46:00,
2013-05-07 00:51:00,60.8,19.5,29.92,WSW,248,0.0,0.0,20,0.00,,,0.00,0,WeatherHawk,2013-05-07 07:51:00,
2013-05-07 00:56:00,60.4,21.4,29.92,WSW,247,0.0,0.0,22,0.00,,,0.00,0,WeatherHawk,2013-05-07 07:56:00,
2013-05-07 01:02:00,60.7,20.6,29.92,NNE,28,0.0,0.0,21,0.00,,,0.00,0,WeatherHawk,2013-05-07 08:02:00,
2013-05-07 01:07:00,61.1,22.0,29.92,NNE,28,0.0,0.0,22,0.00,,,0.00,0,WeatherHawk,2013-05-07 08:07:00,
2013-05-07 01:12:00,61.6,20.2,29.92,ESE,115,0.0,0.0,20,0.00,,,0.00,0,WeatherHawk,2013-05-07 08:12:00,
2013-05-07 01:17:00,60.5,21.4,29.92,ESE,115,1.0,0.0,22,0.00,,,0.00,1,WeatherHawk,2013-05-07 08:17:00,
2013-05-07 01:23:00,59.5,19.5,29.92,SE,127,5.0,0.0,21,0.00,,,0.00,0,WeatherHawk,2013-05-07 08:23:00,
2013-05-07 01:28:00,60.8,18.3,29.92,SE,137,6.0,0.0,19,0.00,,,0.00,0,WeatherHawk,2013-05-07 08:28:00,
2013-05-07 01:33:00,60.4,18.0,29.93,SE,127,3.0,0.0,19,0.00,,,0.00,0,WeatherHawk,2013-05-07 08:33:00,
2013-05-07 01:38:00,59.4,19.4,29.93,SE,126,0.0,0.0,21,0.00,,,0.00,0,WeatherHawk,2013-05-07 08:38:00,
2013-05-07 01:43:00,60.2,19.0,29.92,SE,128,4.0,0.0,20,0.00,,,0.00,0,WeatherHawk,2013-05-07 08:43:00,
2013-05-07 01:48:00,59.7,20.8,29.93,SE,138,4.0,0.0,22,0.00,,,0.00,1,WeatherHawk,2013-05-07 08:48:00,
2013-05-07 01:53:00,58.7,21.0,29.92,SE,134,4.0,0.0,23,0.00,,,0.00,0,WeatherHawk,2013-05-07 08:53:00,
2013-05-07 01:58:00,59.9,24.0,29.93,SE,126,4.0,0.0,25,0.00,,,0.00,0,WeatherHawk,2013-05-07 08:58:00,
2013-05-07 02:03:00,58.9,24.1,29.93,SSE,164,3.0,0.0,26,0.00,,,0.00,1,WeatherHawk,2013-05-07 09:03:00,
2013-05-07 02:08:00,58.3,24.4,29.92,SSE,147,4.0,0.0,27,0.00,,,0.00,0,WeatherHawk,2013-05-07 09:08:00,
2013-05-07 02:13:00,58.4,24.5,29.92,SSE,154,0.0,0.0,27,0.00,,,0.00,1,WeatherHawk,2013-05-07 09:13:00,
2013-05-07 02:18:00,56.1,24.3,29.92,SSE,154,0.0,0.0,29,0.00,,,0.00,0,WeatherHawk,2013-05-07 09:18:00,
2013-05-07 02:23:00,57.2,26.9,29.93,SSE,154,0.0,0.0,31,0.00,,,0.00,0,WeatherHawk,2013-05-07 09:23:00,
2013-05-07 02:28:00,57.4,27.8,29.93,SSE,154,0.0,0.0,32,0.00,,,0.00,0,WeatherHawk,2013-05-07 09:28:00,
2013-05-07 02:33:00,56.1,26.7,29.93,SSE,154,0.0,0.0,32,0.00,,,0.00,0,WeatherHawk,2013-05-07 09:33:00,
2013-05-07 02:38:00,55.4,28.3,29.93,SSE,154,0.0,0.0,35,0.00,,,0.00,0,WeatherHawk,2013-05-07 09:38:00,
2013-05-07 02:43:00,54.8,28.4,29.93,SSE,154,0.0,0.0,36,0.00,,,0.00,0,WeatherHawk,2013-05-07 09:43:00,
2013-05-07 02:48:00,55.6,27.7,29.93,SSE,154,2.0,0.0,34,0.00,,,0.00,0,WeatherHawk,2013-05-07 09:48:00,
2013-05-07 02:53:00,56.0,28.0,29.93,WSW,255,0.0,0.0,34,0.00,,,0.00,0,WeatherHawk,2013-05-07 09:53:00,
2013-05-07 02:58:00,55.1,28.6,29.93,WSW,255,0.0,0.0,36,0.00,,,0.00,0,WeatherHawk,2013-05-07 09:58:00,
2013-05-07 03:03:00,55.7,30.5,29.94,ESE,119,0.0,0.0,38,0.00,,,0.00,0,WeatherHawk,2013-05-07 10:03:00,
2013-05-07 03:08:00,55.9,29.4,29.93,SSE,167,0.0,0.0,36,0.00,,,0.00,0,WeatherHawk,2013-05-07 10:08:00,
2013-05-07 03:14:00,55.4,29.5,29.93,SSW,206,0.0,0.0,37,0.00,,,0.00,0,WeatherHawk,2013-05-07 10:14:00,
2013-05-07 03:19:00,55.5,29.0,29.93,NW,315,0.0,0.0,36,0.00,,,0.00,0,WeatherHawk,2013-05-07 10:19:00,
2013-05-07 03:25:00,53.9,29.5,29.93,NW,316,0.0,0.0,39,0.00,,,0.00,0,WeatherHawk,2013-05-07 10:25:00,
2013-05-07 03:30:00,54.9,31.1,29.93,ESE,123,0.0,-999.0,40,0.00,,,0.00,0,WeatherHawk,2013-05-07 10:30:00,
2013-05-07 03:35:00,55.2,31.9,29.93,ESE,123,0.0,0.0,41,0.00,,,0.00,0,WeatherHawk,2013-05-07 10:35:00,
2013-05-07 03:40:00,55.2,32.6,29.94,ESE,123,0.0,0.0,42,0.00,,,0.00,0,WeatherHawk,2013-05-07 10:40:00,
2013-05-07 03:45:00,54.4,32.9,29.94,ESE,123,0.0,0.0,44,0.00,,,0.00,0,WeatherHawk,2013-05-07 10:45:00,
2013-05-07 03:50:00,53.1,31.7,29.94,ESE,123,0.0,0.0,44,0.00,,,0.00,0,WeatherHawk,2013-05-07 10:50:00,
2013-05-07 03:55:00,55.0,33.5,29.94,South,188,0.0,0.0,44,0.00,,,0.00,0,WeatherHawk,2013-05-07 10:55:00,
2013-05-07 04:01:00,54.3,32.9,29.94,SW,230,0.0,0.0,44,0.00,,,0.00,0,WeatherHawk,2013-05-07 11:01:00,
2013-05-07 04:06:00,53.8,32.4,29.94,SW,232,0.0,0.0,44,0.00,,,0.00,0,WeatherHawk,2013-05-07 11:06:00,
2013-05-07 04:11:00,54.6,34.3,29.94,SW,231,0.0,0.0,46,0.00,,,0.00,0,WeatherHawk,2013-05-07 11:11:00,
2013-05-07 04:16:00,54.0,34.8,29.94,WSW,245,0.0,0.0,48,0.00,,,0.00,0,WeatherHawk,2013-05-07 11:16:00,
2013-05-07 04:21:00,53.8,34.1,29.94,South,189,0.0,0.0,47,0.00,,,0.00,0,WeatherHawk,2013-05-07 11:21:00,
2013-05-07 04:26:00,54.7,35.4,29.94,West,261,1.0,0.0,48,0.00,,,0.00,0,WeatherHawk,2013-05-07 11:26:00,
2013-05-07 04:32:00,53.9,34.2,29.94,West,262,0.0,0.0,47,0.00,,,0.00,1,WeatherHawk,2013-05-07 11:32:00,
2013-05-07 04:37:00,52.3,33.2,29.94,WSW,255,0.0,0.0,48,0.00,,,0.00,0,WeatherHawk,2013-05-07 11:37:00,
2013-05-07 04:42:00,54.1,35.8,29.94,SSW,204,2.0,0.0,50,0.00,,,0.00,0,WeatherHawk,2013-05-07 11:42:00,
2013-05-07 04:48:00,53.6,35.0,29.95,SSE,150,5.0,0.0,49,0.00,,,0.00,0,WeatherHawk,2013-05-07 11:48:00,
2013-05-07 04:53:00,54.7,35.4,29.94,WSW,246,3.0,0.0,48,0.00,,,0.00,1,WeatherHawk,2013-05-07 11:53:00,
2013-05-07 04:58:00,52.2,32.6,29.94,WSW,246,0.0,0.0,47,0.00,,,0.00,0,WeatherHawk,2013-05-07 11:58:00,
2013-05-07 05:03:00,52.5,34.9,29.95,SSE,153,0.0,0.0,51,0.00,,,0.00,0,WeatherHawk,2013-05-07 12:03:00,
2013-05-07 05:08:00,53.6,36.4,29.95,SSE,160,0.0,0.0,52,0.00,,,0.00,0,WeatherHawk,2013-05-07 12:08:00,
2013-05-07 05:13:00,52.2,34.7,29.95,NW,309,0.0,0.0,51,0.00,,,0.00,0,WeatherHawk,2013-05-07 12:13:00,
2013-05-07 05:18:00,53.6,36.9,29.95,NW,309,0.0,0.0,53,0.00,,,0.00,0,WeatherHawk,2013-05-07 12:18:00,
2013-05-07 05:23:00,52.7,36.5,29.95,SE,142,0.0,0.0,54,0.00,,,0.00,0,WeatherHawk,2013-05-07 12:23:00,
2013-05-07 05:28:00,52.5,36.8,29.95,SSE,162,1.0,0.0,55,0.00,,,0.00,0,WeatherHawk,2013-05-07 12:28:00,
2013-05-07 05:33:00,52.1,36.5,29.95,SSW,202,0.0,0.0,55,0.00,,,0.00,0,WeatherHawk,2013-05-07 12:33:00,
2013-05-07 05:38:00,51.8,36.6,29.95,SSW,202,0.0,0.0,56,0.00,,,0.00,0,WeatherHawk,2013-05-07 12:38:00,
2013-05-07 05:43:00,51.0,35.9,29.95,SW,214,0.0,0.0,56,0.00,,,0.00,2,WeatherHawk,2013-05-07 12:43:00,
2013-05-07 05:48:00,51.7,37.4,29.95,East,89,0.0,0.0,58,0.00,,,0.00,3,WeatherHawk,2013-05-07 12:48:00,
2013-05-07 05:54:00,50.9,35.8,29.95,NE,41,0.0,0.0,56,0.00,,,0.00,6,WeatherHawk,2013-05-07 12:54:00,
2013-05-07 05:59:00,52.8,38.9,29.96,ENE,66,0.0,0.0,59,0.00,,,0.00,10,WeatherHawk,2013-05-07 12:59:00,
2013-05-07 06:04:00,52.2,37.4,29.95,SSE,156,2.0,0.0,57,0.00,,,0.00,10,WeatherHawk,2013-05-07 13:04:00,
2013-05-07 06:09:00,52.2,35.6,29.96,SSE,155,6.0,0.0,53,0.00,,,0.00,13,WeatherHawk,2013-05-07 13:09:00,
2013-05-07 06:14:00,51.9,34.3,29.96,South,173,4.0,0.0,51,0.00,,,0.00,15,WeatherHawk,2013-05-07 13:14:00,
2013-05-07 06:19:00,51.0,35.9,29.96,WSW,256,0.0,0.0,56,0.00,,,0.00,17,WeatherHawk,2013-05-07 13:19:00,
2013-05-07 06:24:00,49.8,36.0,29.96,NE,52,0.0,0.0,59,0.00,,,0.00,19,WeatherHawk,2013-05-07 13:24:00,
2013-05-07 06:29:00,49.9,36.6,29.96,SE,143,1.0,0.0,60,0.00,,,0.00,22,WeatherHawk,2013-05-07 13:29:00,
2013-05-07 06:34:00,51.1,37.3,29.96,SE,143,0.0,0.0,59,0.00,,,0.00,23,WeatherHawk,2013-05-07 13:34:00,
2013-05-07 06:40:00,51.7,37.0,29.96,SE,143,0.0,0.0,57,0.00,,,0.00,26,WeatherHawk,2013-05-07 13:40:00,
2013-05-07 06:45:00,51.3,37.0,29.96,SE,143,0.0,-999.0,58,0.00,,,0.00,23,WeatherHawk,2013-05-07 13:45:00,
2013-05-07 06:50:00,51.0,36.7,29.96,SE,143,0.0,-999.0,58,0.00,,,0.00,27,WeatherHawk,2013-05-07 13:50:00,
2013-05-07 06:55:00,51.5,37.7,29.96,SE,143,0.0,0.0,59,0.00,,,0.00,29,WeatherHawk,2013-05-07 13:55:00,
2013-05-07 07:00:00,52.4,38.0,29.96,East,91,0.0,0.0,58,0.00,,,0.00,57,WeatherHawk,2013-05-07 14:00:00,
2013-05-07 07:05:00,53.1,36.9,29.97,NNW,345,0.0,-999.0,54,0.00,,,0.00,103,WeatherHawk,2013-05-07 14:05:00,
2013-05-07 07:10:00,55.5,36.6,29.96,WSW,248,0.0,0.0,49,0.00,,,0.00,149,WeatherHawk,2013-05-07 14:10:00,
2013-05-07 07:15:00,56.7,36.7,29.97,WSW,248,0.0,0.0,47,0.00,,,0.00,160,WeatherHawk,2013-05-07 14:15:00,
2013-05-07 07:20:00,55.0,33.5,29.96,WSW,248,0.0,0.0,44,0.00,,,0.00,172,WeatherHawk,2013-05-07 14:20:00,
2013-05-07 07:25:00,55.1,32.4,29.97,WSW,257,0.0,0.0,42,0.00,,,0.00,184,WeatherHawk,2013-05-07 14:25:00,
2013-05-07 07:30:00,55.6,32.2,29.97,WSW,255,0.0,0.0,41,0.00,,,0.00,196,WeatherHawk,2013-05-07 14:30:00,
2013-05-07 07:35:00,56.4,31.8,29.97,NNW,340,0.0,0.0,39,0.00,,,0.00,210,WeatherHawk,2013-05-07 14:35:00,
2013-05-07 07:40:00,56.9,30.9,29.97,NNW,340,0.0,-999.0,37,0.00,,,0.00,222,WeatherHawk,2013-05-07 14:40:00,
2013-05-07 07:45:00,57.2,30.5,29.97,NE,42,0.0,0.0,36,0.00,,,0.00,236,WeatherHawk,2013-05-07 14:45:00,
2013-05-07 07:50:00,58.3,30.1,29.97,NNE,24,0.0,0.0,34,0.00,,,0.00,247,WeatherHawk,2013-05-07 14:50:00,
2013-05-07 07:55:00,58.7,31.1,29.98,NNE,33,0.0,0.0,35,0.00,,,0.00,259,WeatherHawk,2013-05-07 14:55:00,
2013-05-07 08:00:00,57.8,29.6,29.97,NNW,332,0.0,-999.0,34,0.00,,,0.00,273,WeatherHawk,2013-05-07 15:00:00,
2013-05-07 08:05:00,59.0,30.7,29.97,NNW,335,0.0,0.0,34,0.00,,,0.00,287,WeatherHawk,2013-05-07 15:05:00,
2013-05-07 08:10:00,59.3,30.9,29.96,NNW,338,0.0,0.0,34,0.00,,,0.00,301,WeatherHawk,2013-05-07 15:10:00,
2013-05-07 08:15:00,58.1,29.1,29.96,WNW,291,0.0,0.0,33,0.00,,,0.00,313,WeatherHawk,2013-05-07 15:15:00,
2013-05-07 08:20:00,65.5,34.9,29.97,WNW,291,0.0,0.0,32,0.00,,,0.00,325,WeatherHawk,2013-05-07 15:20:00,
2013-05-07 08:25:00,61.2,31.1,29.97,NNW,344,0.0,0.0,32,0.00,,,0.00,337,WeatherHawk,2013-05-07 15:25:00,
2013-05-07 08:30:00,58.5,27.9,29.96,West,267,0.0,0.0,31,0.00,,,0.00,351,WeatherHawk,2013-05-07 15:30:00,
2013-05-07 08:35:00,58.6,28.1,29.97,West,264,1.0,0.0,31,0.00,,,0.00,364,WeatherHawk,2013-05-07 15:35:00,
2013-05-07 08:40:00,59.6,28.9,29.96,West,260,0.0,0.0,31,0.00,,,0.00,376,WeatherHawk,2013-05-07 15:40:00,
2013-05-07 08:45:00,59.2,29.3,29.96,NNW,328,3.0,0.0,32,0.00,,,0.00,389,WeatherHawk,2013-05-07 15:45:00,
2013-05-07 08:50:00,60.8,30.0,29.96,WSW,251,0.0,0.0,31,0.00,,,0.00,401,WeatherHawk,2013-05-07 15:50:00,
2013-05-07 08:55:00,59.6,27.4,29.96,NW,320,1.0,0.0,29,0.00,,,0.00,415,WeatherHawk,2013-05-07 15:55:00,
2013-05-07 09:00:00,59.3,27.0,29.96,NW,321,3.0,0.0,29,0.00,,,0.00,428,WeatherHawk,2013-05-07 16:00:00,
2013-05-07 09:05:00,60.7,27.4,29.96,West,281,0.0,0.0,28,0.00,,,0.00,439,WeatherHawk,2013-05-07 16:05:00,
2013-05-07 09:10:00,60.2,24.2,29.96,West,265,0.0,0.0,25,0.00,,,0.00,451,WeatherHawk,2013-05-07 16:10:00,
2013-05-07 09:15:00,61.9,25.7,29.96,West,261,0.0,0.0,25,0.00,,,0.00,462,WeatherHawk,2013-05-07 16:15:00,
2013-05-07 09:20:00,67.9,30.8,29.96,WSW,250,0.0,0.0,25,0.00,,,0.00,474,WeatherHawk,2013-05-07 16:20:00,
2013-05-07 09:25:00,66.1,25.1,29.96,SE,146,0.0,-999.0,21,0.00,,,0.00,486,WeatherHawk,2013-05-07 16:25:00,
2013-05-07 09:30:00,63.1,23.7,29.96,NW,304,3.0,0.0,22,0.00,,,0.00,496,WeatherHawk,2013-05-07 16:30:00,
2013-05-07 09:35:00,62.7,25.4,29.96,NNW,334,4.0,0.0,24,0.00,,,0.00,508,WeatherHawk,2013-05-07 16:35:00,
2013-05-07 09:40:00,64.3,23.5,29.96,NW,314,2.0,0.0,21,0.00,,,0.00,520,WeatherHawk,2013-05-07 16:40:00,
2013-05-07 09:45:00,65.9,26.0,29.96,NE,39,4.0,0.0,22,0.00,,,0.00,530,WeatherHawk,2013-05-07 16:45:00,
2013-05-07 09:51:00,65.3,23.2,29.95,NE,50,3.0,0.0,20,0.00,,,0.00,540,WeatherHawk,2013-05-07 16:51:00,
2013-05-07 09:56:00,64.7,21.5,29.96,ENE,57,5.0,0.0,19,0.00,,,0.00,555,WeatherHawk,2013-05-07 16:56:00,
2013-05-07 10:01:00,67.5,22.5,29.95,NNE,15,4.0,0.0,18,0.00,,,0.00,565,WeatherHawk,2013-05-07 17:01:00,
2013-05-07 10:06:00,66.5,20.3,29.95,North,7,3.0,0.0,17,0.00,,,0.00,575,WeatherHawk,2013-05-07 17:06:00,
2013-05-07 10:11:00,68.2,21.7,29.95,NE,38,6.0,0.0,17,0.00,,,0.00,584,WeatherHawk,2013-05-07 17:11:00,
2013-05-07 10:16:00,66.8,20.6,29.95,NNE,18,5.0,0.0,17,0.00,,,0.00,591,WeatherHawk,2013-05-07 17:16:00,
2013-05-07 10:21:00,68.5,20.6,29.94,North,2,3.0,0.0,16,0.00,,,0.00,602,WeatherHawk,2013-05-07 17:21:00,
2013-05-07 10:26:00,68.5,19.1,29.95,North,0,7.0,0.0,15,0.00,,,0.00,611,WeatherHawk,2013-05-07 17:26:00,
2013-05-07 10:31:00,67.7,18.4,29.94,NNE,15,6.0,0.0,15,0.00,,,0.00,618,WeatherHawk,2013-05-07 17:31:00,
2013-05-07 10:37:00,69.7,20.0,29.95,NE,39,6.0,0.0,15,0.00,,,0.00,628,WeatherHawk,2013-05-07 17:37:00,
2013-05-07 10:42:00,70.5,20.6,29.95,NNW,335,6.0,0.0,15,0.00,,,0.00,638,WeatherHawk,2013-05-07 17:42:00,
2013-05-07 10:47:00,67.7,15.1,29.94,North,0,7.0,0.0,13,0.00,,,0.00,646,WeatherHawk,2013-05-07 17:47:00,
2013-05-07 10:52:00,70.1,17.0,29.94,North,0,9.0,0.0,13,0.00,,,0.00,653,WeatherHawk,2013-05-07 17:52:00,
2013-05-07 10:57:00,69.6,12.8,29.95,NNE,30,3.0,0.0,11,0.00,,,0.00,662,WeatherHawk,2013-05-07 17:57:00,
2013-05-07 11:02:00,68.0,11.5,29.94,WNW,291,4.0,0.0,11,0.00,,,0.00,667,WeatherHawk,2013-05-07 18:02:00,
2013-05-07 11:07:00,68.3,13.7,29.94,NNW,332,4.0,0.0,12,0.00,,,0.00,677,WeatherHawk,2013-05-07 18:07:00,
2013-05-07 11:12:00,68.9,2.3,29.94,NNW,341,4.0,0.0,7,0.00,,,0.00,683,WeatherHawk,2013-05-07 18:12:00,
2013-05-07 11:17:00,68.9,10.1,29.94,NW,314,5.0,0.0,10,0.00,,,0.00,690,WeatherHawk,2013-05-07 18:17:00,
2013-05-07 11:22:00,69.5,10.5,29.94,WNW,302,4.0,0.0,10,0.00,,,0.00,697,WeatherHawk,2013-05-07 18:22:00,
2013-05-07 11:27:00,71.2,9.5,29.94,West,277,3.0,0.0,9,0.00,,,0.00,701,WeatherHawk,2013-05-07 18:27:00,
2013-05-07 11:33:00,70.6,3.6,29.93,North,3,6.0,0.0,7,0.00,,,0.00,707,WeatherHawk,2013-05-07 18:33:00,
2013-05-07 11:38:00,73.5,8.6,29.93,NE,52,0.0,0.0,8,0.00,,,0.00,713,WeatherHawk,2013-05-07 18:38:00,
2013-05-07 11:44:00,71.8,4.5,29.92,NNE,26,0.0,0.0,7,0.00,,,0.00,718,WeatherHawk,2013-05-07 18:44:00,
2013-05-07 11:49:00,70.4,3.4,29.92,NW,316,8.0,0.0,7,0.00,,,0.00,720,WeatherHawk,2013-05-07 18:49:00,
2013-05-07 11:54:00,77.5,1.3,29.92,SSE,162,0.0,0.0,5,0.00,,,0.00,724,WeatherHawk,2013-05-07 18:54:00,
2013-05-07 11:59:00,71.7,4.3,29.93,WNW,289,6.0,0.0,7,0.00,,,0.00,730,WeatherHawk,2013-05-07 18:59:00,
2013-05-07 12:04:00,72.5,-2.2,29.92,WNW,286,5.0,0.0,5,0.00,,,0.00,732,WeatherHawk,2013-05-07 19:04:00,
2013-05-07 12:09:00,73.6,8.7,29.93,NNW,340,5.0,0.0,8,0.00,,,0.00,737,WeatherHawk,2013-05-07 19:09:00,
2013-05-07 12:15:00,72.5,7.9,29.92,NW,312,2.0,0.0,8,0.00,,,0.00,746,WeatherHawk,2013-05-07 19:15:00,
2013-05-07 12:20:00,73.0,-1.9,29.92,North,5,4.0,0.0,5,0.00,,,0.00,744,WeatherHawk,2013-05-07 19:20:00,
2013-05-07 12:25:00,74.9,3.4,29.91,North,0,0.0,0.0,6,0.00,,,0.00,750,WeatherHawk,2013-05-07 19:25:00,
2013-05-07 12:31:00,73.8,-1.3,29.91,West,280,4.0,0.0,5,0.00,,,0.00,750,WeatherHawk,2013-05-07 19:31:00,
2013-05-07 12:36:00,73.3,8.4,29.91,NW,318,7.0,0.0,8,0.00,,,0.00,753,WeatherHawk,2013-05-07 19:36:00,
2013-05-07 12:41:00,74.8,9.6,29.91,ENE,57,0.0,0.0,8,0.00,,,0.00,753,WeatherHawk,2013-05-07 19:41:00,
2013-05-07 12:46:00,75.0,6.8,29.92,West,260,0.0,0.0,7,0.00,,,0.00,756,WeatherHawk,2013-05-07 19:46:00,
2013-05-07 12:52:00,76.5,4.5,29.90,NE,39,0.0,0.0,6,0.00,,,0.00,760,WeatherHawk,2013-05-07 19:52:00,
2013-05-07 12:57:00,77.0,4.8,29.90,East,98,2.0,0.0,6,0.00,,,0.00,767,WeatherHawk,2013-05-07 19:57:00,
2013-05-07 13:03:00,77.7,5.4,29.89,NNE,21,3.0,0.0,6,0.00,,,0.00,758,WeatherHawk,2013-05-07 20:03:00,
2013-05-07 13:08:00,78.0,-3.1,29.90,NNE,13,6.0,0.0,4,0.00,,,0.00,758,WeatherHawk,2013-05-07 20:08:00,
2013-05-07 13:14:00,76.2,4.3,29.90,NE,47,5.0,0.0,6,0.00,,,0.00,756,WeatherHawk,2013-05-07 20:14:00,
2013-05-07 13:19:00,77.7,8.7,29.89,NE,39,5.0,0.0,7,0.00,,,0.00,755,WeatherHawk,2013-05-07 20:19:00,
2013-05-07 13:25:00,76.7,-4.0,29.90,WNW,287,6.0,-999.0,4,0.00,,,0.00,757,WeatherHawk,2013-05-07 20:25:00,
2013-05-07 13:30:00,82.2,-0.2,29.89,SSW,202,0.0,0.0,4,0.00,,,0.00,751,WeatherHawk,2013-05-07 20:30:00,
2013-05-07 13:36:00,78.5,-2.7,29.89,SE,138,3.0,0.0,4,0.00,,,0.00,755,WeatherHawk,2013-05-07 20:36:00,
2013-05-07 13:41:00,75.6,-4.8,29.89,ENE,60,6.0,0.0,4,0.00,,,0.00,752,WeatherHawk,2013-05-07 20:41:00,
2013-05-07 13:46:00,77.7,-3.3,29.89,NW,315,6.0,0.0,4,0.00,,,0.00,745,WeatherHawk,2013-05-07 20:46:00,
2013-05-07 13:51:00,76.4,-4.2,29.89,WSW,249,3.0,0.0,4,0.00,,,0.00,743,WeatherHawk,2013-05-07 20:51:00,
2013-05-07 13:56:00,76.0,-4.5,29.89,WNW,289,10.0,0.0,4,0.00,,,0.00,733,WeatherHawk,2013-05-07 20:56:00,
2013-05-07 14:02:00,79.0,-2.4,29.89,WSW,241,1.0,0.0,4,0.00,,,0.00,728,WeatherHawk,2013-05-07 21:02:00,
2013-05-07 14:07:00,76.2,0.4,29.89,NNW,334,13.0,0.0,5,0.00,,,0.00,727,WeatherHawk,2013-05-07 21:07:00,
2013-05-07 14:12:00,78.2,1.8,29.88,NE,39,9.0,0.0,5,0.00,,,0.00,724,WeatherHawk,2013-05-07 21:12:00,
2013-05-07 14:17:00,82.9,5.1,29.88,SW,234,1.0,0.0,5,0.00,,,0.00,723,WeatherHawk,2013-05-07 21:17:00,
2013-05-07 14:22:00,80.7,3.5,29.88,NNE,19,6.0,0.0,5,0.00,,,0.00,713,WeatherHawk,2013-05-07 21:22:00,
2013-05-07 14:27:00,77.3,1.1,29.88,East,89,8.0,0.0,5,0.00,,,0.00,710,WeatherHawk,2013-05-07 21:27:00,
2013-05-07 14:32:00,77.1,1.0,29.88,NNW,335,10.0,0.0,5,0.00,,,0.00,705,WeatherHawk,2013-05-07 21:32:00,
2013-05-07 14:37:00,80.4,3.3,29.88,NNW,336,10.0,0.0,5,0.00,,,0.00,701,WeatherHawk,2013-05-07 21:37:00,
2013-05-07 14:42:00,80.2,3.2,29.88,NW,307,11.0,0.0,5,0.00,,,0.00,694,WeatherHawk,2013-05-07 21:42:00,
2013-05-07 14:48:00,77.9,1.6,29.88,NW,306,7.0,0.0,5,0.00,,,0.00,691,WeatherHawk,2013-05-07 21:48:00,
2013-05-07 14:53:00,78.8,-2.5,29.88,NNW,327,12.0,0.0,4,0.00,,,0.00,686,WeatherHawk,2013-05-07 21:53:00,
2013-05-07 14:58:00,80.6,-1.3,29.89,North,351,7.0,0.0,4,0.00,,,0.00,684,WeatherHawk,2013-05-07 21:58:00,
2013-05-07 15:04:00,80.3,-1.5,29.88,NW,304,11.0,0.0,4,0.00,,,0.00,698,WeatherHawk,2013-05-07 22:04:00,
2013-05-07 15:09:00,80.9,-1.1,29.88,NW,320,7.0,0.0,4,0.00,,,0.00,700,WeatherHawk,2013-05-07 22:09:00,
2013-05-07 15:14:00,78.2,-2.9,29.87,NNW,329,22.0,0.0,4,0.00,,,0.00,695,WeatherHawk,2013-05-07 22:14:00,
2013-05-07 15:19:00,77.9,-3.1,29.88,NNW,336,16.0,0.0,4,0.00,,,0.00,670,WeatherHawk,2013-05-07 22:19:00,
2013-05-07 15:25:00,80.7,3.5,29.87,NNW,338,13.0,0.0,5,0.00,,,0.00,653,WeatherHawk,2013-05-07 22:25:00,
2013-05-07 15:30:00,79.2,-2.3,29.87,North,4,15.0,-999.0,4,0.00,,,0.00,647,WeatherHawk,2013-05-07 22:30:00,
2013-05-07 15:35:00,80.4,-1.5,29.88,NNW,346,9.0,0.0,4,0.00,,,0.00,495,WeatherHawk,2013-05-07 22:35:00,
2013-05-07 15:40:00,77.2,1.1,29.87,NNW,336,12.0,-999.0,5,0.00,,,0.00,91,WeatherHawk,2013-05-07 22:40:00,
2013-05-07 15:45:00,77.0,0.9,29.88,North,4,7.0,0.0,5,0.00,,,0.00,310,WeatherHawk,2013-05-07 22:45:00,
2013-05-07 15:50:00,76.7,0.7,29.89,North,5,10.0,0.0,5,0.00,,,0.00,105,WeatherHawk,2013-05-07 22:50:00,
2013-05-07 15:55:00,78.0,-3.1,29.88,NNE,12,10.0,0.0,4,0.00,,,0.00,614,WeatherHawk,2013-05-07 22:55:00,
2013-05-07 16:01:00,78.5,2.0,29.87,NNW,331,11.0,0.0,5,0.00,,,0.00,607,WeatherHawk,2013-05-07 23:01:00,
2013-05-07 16:07:00,77.2,1.1,29.88,NNE,20,9.0,0.0,5,0.00,,,0.00,417,WeatherHawk,2013-05-07 23:07:00,
2013-05-07 16:12:00,76.6,-4.0,29.88,North,2,12.0,0.0,4,0.00,,,0.00,111,WeatherHawk,2013-05-07 23:12:00,
2013-05-07 16:17:00,76.7,-4.0,29.88,North,0,9.0,0.0,4,0.00,,,0.00,101,WeatherHawk,2013-05-07 23:17:00,
2013-05-07 16:22:00,76.5,-4.1,29.88,NW,326,14.0,0.0,4,0.00,,,0.00,91,WeatherHawk,2013-05-07 23:22:00,
2013-05-07 16:28:00,76.5,10.9,29.88,NW,307,14.0,0.0,8,0.00,,,0.00,81,WeatherHawk,2013-05-07 23:28:00,
2013-05-07 16:33:00,76.3,10.7,29.88,NNW,330,17.0,0.0,8,0.00,,,0.00,112,WeatherHawk,2013-05-07 23:33:00,
2013-05-07 16:38:00,76.3,10.7,29.88,NW,306,9.0,0.0,8,0.00,,,0.00,83,WeatherHawk,2013-05-07 23:38:00,
2013-05-07 16:43:00,75.9,10.4,29.88,NNW,342,15.0,0.0,8,0.00,,,0.00,68,WeatherHawk,2013-05-07 23:43:00,
2013-05-07 16:49:00,76.1,7.6,29.88,NNW,341,14.0,0.0,7,0.00,,,0.00,70,WeatherHawk,2013-05-07 23:49:00,
2013-05-07 16:55:00,76.4,7.8,29.88,NW,312,13.0,-999.0,7,0.00,,,0.00,88,WeatherHawk,2013-05-07 23:55:00,
2013-05-07 17:00:00,76.1,10.5,29.89,NW,321,23.0,0.0,8,0.00,,,0.00,66,WeatherHawk,2013-05-08 00:00:00,
2013-05-07 17:05:00,76.7,8.0,29.89,North,4,20.0,-999.0,7,0.00,,,0.00,374,WeatherHawk,2013-05-08 00:05:00,
2013-05-07 17:10:00,76.5,10.8,29.88,NW,324,19.0,0.0,8,0.00,,,0.00,422,WeatherHawk,2013-05-08 00:10:00,
2013-05-07 17:15:00,76.5,7.9,29.89,North,0,16.0,0.0,7,0.00,,,0.00,408,WeatherHawk,2013-05-08 00:15:00,
2013-05-07 17:20:00,77.3,11.4,29.89,NNW,338,21.0,0.0,8,0.00,,,0.00,388,WeatherHawk,2013-05-08 00:20:00,
2013-05-07 17:25:00,77.2,8.4,29.88,NW,326,16.0,0.0,7,0.00,,,0.00,381,WeatherHawk,2013-05-08 00:25:00,
2013-05-07 17:30:00,77.5,8.6,29.88,NNW,340,20.0,0.0,7,0.00,,,0.00,367,WeatherHawk,2013-05-08 00:30:00,
2013-05-07 17:35:00,77.0,8.2,29.89,NNW,327,20.0,-999.0,7,0.00,,,0.00,354,WeatherHawk,2013-05-08 00:35:00,
2013-05-07 17:40:00,77.3,8.5,29.88,NNW,342,20.0,0.0,7,0.00,,,0.00,334,WeatherHawk,2013-05-08 00:40:00,
2013-05-07 17:45:00,76.5,7.9,29.89,NNW,329,21.0,0.0,7,0.00,,,0.00,323,WeatherHawk,2013-05-08 00:45:00,
2013-05-07 17:50:00,76.9,8.2,29.88,NW,324,15.0,0.0,7,0.00,,,0.00,310,WeatherHawk,2013-05-08 00:50:00,
2013-05-07 17:55:00,78.0,9.0,29.89,North,0,16.0,0.0,7,0.00,,,0.00,295,WeatherHawk,2013-05-08 00:55:00,
2013-05-07 18:00:00,77.4,5.1,29.89,North,2,16.0,0.0,6,0.00,,,0.00,285,WeatherHawk,2013-05-08 01:00:00,
2013-05-07 18:05:00,76.3,7.7,29.89,NW,319,13.0,-999.0,7,0.00,,,0.00,273,WeatherHawk,2013-05-08 01:05:00,
2013-05-07 18:10:00,76.4,7.8,29.89,NW,310,20.0,0.0,7,0.00,,,0.00,260,WeatherHawk,2013-05-08 01:10:00,
2013-05-07 18:15:00,76.3,7.7,29.89,NW,312,15.0,-999.0,7,0.00,,,0.00,246,WeatherHawk,2013-05-08 01:15:00,
2013-05-07 18:20:00,75.7,0.0,29.89,WNW,297,19.0,0.0,5,0.00,,,0.00,235,WeatherHawk,2013-05-08 01:20:00,
2013-05-07 18:25:00,74.7,3.2,29.89,WNW,302,18.0,0.0,6,0.00,,,0.00,223,WeatherHawk,2013-05-08 01:25:00,
2013-05-07 18:30:00,75.2,9.8,29.90,WNW,294,19.0,0.0,8,0.00,,,0.00,208,WeatherHawk,2013-05-08 01:30:00,
2013-05-07 18:35:00,74.9,3.3,29.90,WNW,299,15.0,0.0,6,0.00,,,0.00,199,WeatherHawk,2013-05-08 01:35:00,
2013-05-07 18:40:00,75.2,-0.3,29.90,WNW,295,18.0,0.0,5,0.00,,,0.00,183,WeatherHawk,2013-05-08 01:40:00,
2013-05-07 18:45:00,74.4,6.4,29.90,NW,309,15.0,0.0,7,0.00,,,0.00,173,WeatherHawk,2013-05-08 01:45:00,
2013-05-07 18:50:00,75.4,10.0,29.90,WNW,297,11.0,0.0,8,0.00,,,0.00,161,WeatherHawk,2013-05-08 01:50:00,
2013-05-07 18:55:00,74.3,9.2,29.91,West,275,8.0,0.0,8,0.00,,,0.00,149,WeatherHawk,2013-05-08 01:55:00,
2013-05-07 19:00:00,73.8,11.5,29.91,NW,312,13.0,0.0,9,0.00,,,0.00,139,WeatherHawk,2013-05-08 02:00:00,
2013-05-07 19:05:00,74.6,9.5,29.90,WSW,256,10.0,-999.0,8,0.00,,,0.00,125,WeatherHawk,2013-05-08 02:05:00,
2013-05-07 19:10:00,73.6,11.3,29.90,West,280,14.0,0.0,9,0.00,,,0.00,115,WeatherHawk,2013-05-08 02:10:00,
2013-05-07 19:15:00,73.3,15.6,29.91,WNW,292,12.0,-999.0,11,0.00,,,0.00,105,WeatherHawk,2013-05-08 02:15:00,
2013-05-07 19:20:00,73.4,8.6,29.91,WNW,299,9.0,0.0,8,0.00,,,0.00,94,WeatherHawk,2013-05-08 02:20:00,
2013-05-07 19:25:00,72.9,8.1,29.91,NW,308,12.0,0.0,8,0.00,,,0.00,84,WeatherHawk,2013-05-08 02:25:00,
2013-05-07 19:30:00,72.5,15.0,29.91,WSW,256,16.0,0.0,11,0.00,,,0.00,76,WeatherHawk,2013-05-08 02:30:00,
2013-05-07 19:35:00,72.4,12.8,29.91,NW,309,17.0,0.0,10,0.00,,,0.00,66,WeatherHawk,2013-05-08 02:35:00,
2013-05-07 19:40:00,72.4,12.8,29.93,NW,310,9.0,0.0,10,0.00,,,0.00,56,WeatherHawk,2013-05-08 02:40:00,
2013-05-07 19:45:00,72.1,12.6,29.92,WNW,287,10.0,0.0,10,0.00,,,0.00,47,WeatherHawk,2013-05-08 02:45:00,
2013-05-07 19:50:00,71.5,14.3,29.92,NW,308,8.0,0.0,11,0.00,,,0.00,39,WeatherHawk,2013-05-08 02:50:00,
2013-05-07 19:55:00,70.9,13.8,29.92,WNW,283,13.0,0.0,11,0.00,,,0.00,32,WeatherHawk,2013-05-08 02:55:00,
2013-05-07 20:00:00,70.6,13.6,29.93,West,275,7.0,0.0,11,0.00,,,0.00,20,WeatherHawk,2013-05-08 03:00:00,
2013-05-07 20:05:00,70.4,15.4,29.92,WNW,299,11.0,0.0,12,0.00,,,0.00,10,WeatherHawk,2013-05-08 03:05:00,
2013-05-07 20:10:00,70.0,15.1,29.93,NW,314,13.0,0.0,12,0.00,,,0.00,7,WeatherHawk,2013-05-08 03:10:00,
2013-05-07 20:15:00,69.6,16.6,29.94,NW,306,12.0,0.0,13,0.00,,,0.00,5,WeatherHawk,2013-05-08 03:15:00,
2013-05-07 20:20:00,69.5,18.3,29.93,WNW,299,13.0,0.0,14,0.00,,,0.00,2,WeatherHawk,2013-05-08 03:20:00,
2013-05-07 20:25:00,69.5,16.5,29.93,NW,308,21.0,0.0,13,0.00,,,0.00,1,WeatherHawk,2013-05-08 03:25:00,
2013-05-07 20:30:00,68.4,17.4,29.93,NW,316,4.0,0.0,14,0.00,,,0.00,0,WeatherHawk,2013-05-08 03:30:00,
2013-05-07 20:35:00,68.6,15.8,29.93,NNW,346,4.0,0.0,13,0.00,,,0.00,0,WeatherHawk,2013-05-08 03:35:00,
2013-05-07 20:40:00,68.1,13.6,29.94,North,351,3.0,0.0,12,0.00,,,0.00,0,WeatherHawk,2013-05-08 03:40:00,
2013-05-07 20:45:00,68.8,15.9,29.94,North,0,4.0,0.0,13,0.00,,,0.00,0,WeatherHawk,2013-05-08 03:45:00,
2013-05-07 20:50:00,68.5,17.4,29.95,NE,44,0.0,0.0,14,0.00,,,0.00,0,WeatherHawk,2013-05-08 03:50:00,
2013-05-07 20:55:00,67.0,14.5,29.95,SSW,194,0.0,0.0,13,0.00,,,0.00,0,WeatherHawk,2013-05-08 03:55:00,
2013-05-07 21:00:00,68.2,17.2,29.95,West,280,2.0,0.0,14,0.00,,,0.00,0,WeatherHawk,2013-05-08 04:00:00,
2013-05-07 21:01:00,68.1,15.4,29.95,West,259,0.0,0.0,13,0.00,,,0.00,0,WeatherHawk,2013-05-08 04:01:00,
2013-05-07 21:02:00,67.7,15.1,29.95,WSW,246,0.0,0.0,13,0.00,,,0.00,0,WeatherHawk,2013-05-08 04:02:00,
2013-05-07 21:03:00,67.5,15.0,29.95,WSW,247,0.0,0.0,13,0.00,,,0.00,0,WeatherHawk,2013-05-08 04:03:00,
2013-05-07 21:04:00,67.7,15.1,29.96,West,269,0.0,0.0,13,0.00,,,0.00,0,WeatherHawk,2013-05-08 04:04:00,
2013-05-07 21:09:00,65.9,18.4,29.96,SW,230,0.0,0.0,16,0.00,,,0.00,1,WeatherHawk,2013-05-08 04:09:00,
2013-05-07 21:10:00,65.9,18.4,29.96,SW,230,0.0,0.0,16,0.00,,,0.00,1,WeatherHawk,2013-05-08 04:10:00,
2013-05-07 21:15:00,67.2,18.0,29.96,ESE,105,0.0,0.0,15,0.00,,,0.00,0,WeatherHawk,2013-05-08 04:15:00,
2013-05-07 21:20:00,65.8,16.9,29.97,SE,141,3.0,0.0,15,0.00,,,0.00,0,WeatherHawk,2013-05-08 04:20:00,
2013-05-07 21:25:00,66.3,21.6,29.97,SSE,166,5.0,0.0,18,0.00,,,0.00,0,WeatherHawk,2013-05-08 04:25:00,
2013-05-07 21:30:00,65.0,20.5,29.97,SSE,151,5.0,0.0,18,0.00,,,0.00,0,WeatherHawk,2013-05-08 04:30:00,
2013-05-07 21:35:00,64.6,18.8,29.97,SSE,158,2.0,0.0,17,0.00,,,0.00,0,WeatherHawk,2013-05-08 04:35:00,
2013-05-07 21:40:00,65.4,22.1,29.97,ESE,111,2.0,0.0,19,0.00,,,0.00,1,WeatherHawk,2013-05-08 04:40:00,
2013-05-07 21:45:00,63.6,20.6,29.98,ESE,116,7.0,0.0,19,0.00,,,0.00,0,WeatherHawk,2013-05-08 04:45:00,
2013-05-07 21:50:00,63.0,21.3,29.98,SE,132,6.0,0.0,20,0.00,,,0.00,0,WeatherHawk,2013-05-08 04:50:00,
2013-05-07 21:55:00,63.2,21.5,29.99,SE,126,4.0,0.0,20,0.00,,,0.00,0,WeatherHawk,2013-05-08 04:55:00,
2013-05-07 22:00:00,63.2,22.6,29.99,SE,124,5.0,0.0,21,0.00,,,0.00,0,WeatherHawk,2013-05-08 05:00:00,
2013-05-07 22:05:00,63.0,23.6,29.99,East,98,5.0,-999.0,22,0.00,,,0.00,0,WeatherHawk,2013-05-08 05:05:00,
2013-05-07 22:10:00,62.3,24.0,29.99,ESE,111,3.0,0.0,23,0.00,,,0.00,0,WeatherHawk,2013-05-08 05:10:00,
2013-05-07 22:15:00,62.8,26.5,29.99,ESE,109,5.0,0.0,25,0.00,,,0.00,0,WeatherHawk,2013-05-08 05:15:00,
2013-05-07 22:20:00,63.9,27.4,29.99,ESE,115,5.0,-999.0,25,0.00,,,0.00,1,WeatherHawk,2013-05-08 05:20:00,
2013-05-07 22:25:00,63.2,25.8,30.00,ESE,104,4.0,0.0,24,0.00,,,0.00,0,WeatherHawk,2013-05-08 05:25:00,
2013-05-07 22:30:00,63.2,27.7,29.99,East,88,6.0,0.0,26,0.00,,,0.00,1,WeatherHawk,2013-05-08 05:30:00,
2013-05-07 22:35:00,61.7,27.4,29.99,East,98,6.0,-999.0,27,0.00,,,0.00,0,WeatherHawk,2013-05-08 05:35:00,
2013-05-07 22:40:00,62.3,27.9,30.00,East,89,6.0,-999.0,27,0.00,,,0.00,0,WeatherHawk,2013-05-08 05:40:00,
2013-05-07 22:45:00,61.4,28.0,30.00,ESE,111,5.0,-999.0,28,0.00,,,0.00,0,WeatherHawk,2013-05-08 05:45:00,
2013-05-07 22:50:00,60.7,29.1,30.01,ESE,104,5.0,0.0,30,0.00,,,0.00,0,WeatherHawk,2013-05-08 05:50:00,
2013-05-07 22:55:00,60.4,28.8,30.01,SE,134,4.0,0.0,30,0.00,,,0.00,0,WeatherHawk,2013-05-08 05:55:00,
2013-05-07 23:00:00,59.7,29.0,30.02,SE,129,4.0,-999.0,31,0.00,,,0.00,1,WeatherHawk,2013-05-08 06:00:00,
2013-05-07 23:05:00,60.5,29.7,30.02,SE,133,5.0,0.0,31,0.00,,,0.00,0,WeatherHawk,2013-05-08 06:05:00,
2013-05-07 23:10:00,59.9,30.0,30.01,ESE,113,5.0,-999.0,32,0.00,,,0.00,0,WeatherHawk,2013-05-08 06:10:00,
2013-05-07 23:15:00,59.6,29.7,30.01,ESE,109,5.0,0.0,32,0.00,,,0.00,0,WeatherHawk,2013-05-08 06:15:00,
2013-05-07 23:20:00,59.3,30.2,30.02,ESE,108,4.0,0.0,33,0.00,,,0.00,0,WeatherHawk,2013-05-08 06:20:00,
2013-05-07 23:25:00,58.4,29.4,30.02,ESE,117,4.0,0.0,33,0.00,,,0.00,2,WeatherHawk,2013-05-08 06:25:00,
2013-05-07 23:30:00,59.0,30.7,30.02,SE,134,4.0,-999.0,34,0.00,,,0.00,0,WeatherHawk,2013-05-08 06:30:00,
2013-05-07 23:35:00,58.7,30.4,30.02,SE,140,5.0,0.0,34,0.00,,,0.00,0,WeatherHawk,2013-05-08 06:35:00,
2013-05-07 23:40:00,58.7,31.1,30.03,SE,142,6.0,0.0,35,0.00,,,0.00,0,WeatherHawk,2013-05-08 06:40:00,
2013-05-07 23:45:00,57.3,30.6,30.02,SE,133,4.0,0.0,36,0.00,,,0.00,0,WeatherHawk,2013-05-08 06:45:00,
2013-05-07 23:50:00,58.5,31.6,30.03,SE,135,5.0,-999.0,36,0.00,,,0.00,0,WeatherHawk,2013-05-08 06:50:00,
2013-05-07 23:55:00,57.6,30.9,30.03,SE,131,5.0,0.0,36,0.00,,,0.00,1,WeatherHawk,2013-05-08 06:55:00,